| time (UTC) | temp F | wind direction | speed MPH | gust MPH | rain 1hr in | rain 24hr in | rain mn in | humidity % | barometer mb |
| 20260507164546 | 54 | 248 | 5.0 | 11.0 | 0.01 | 0.18 | 0.02 | 31 | 1016.4 |
| 20260507163042 | 53 | 277 | 1.0 | 7.0 | 0.01 | 0.18 | 0.02 | 30 | 1016.6 |
| 20260507161540 | 53 | 239 | 4.0 | 9.0 | 0.01 | 0.17 | 0.01 | 33 | 1016.8 |
| 20260507160037 | 52 | 248 | 3.0 | 8.0 | 0.01 | 0.17 | 0.01 | 36 | 1017.1 |
| 20260507154532 | 50 | 241 | 4.0 | 9.0 | 0.01 | 0.17 | 0.01 | 38 | 1017.5 |
| 20260507153026 | 49 | 260 | 4.0 | 9.0 | 0.01 | 0.17 | 0.01 | 42 | 1017.7 |
| 20260507151522 | 48 | 270 | 5.0 | 13.0 | 0.00 | 0.16 | 0.00 | 45 | 1017.8 |
| 20260507150018 | 46 | 273 | 5.0 | 9.0 | 0.00 | 0.16 | 0.00 | 47 | 1017.8 |
| 20260507144515 | 46 | 280 | 3.0 | 8.0 | 0.00 | 0.16 | 0.00 | 49 | 1018.1 |
| 20260507143012 | 44 | 266 | 3.0 | 7.0 | 0.00 | 0.16 | 0.00 | 48 | 1018.3 |
| 20260507141508 | 43 | 274 | 1.0 | 5.0 | 0.00 | 0.16 | 0.00 | 50 | 1018.3 |
| 20260507140006 | 42 | 246 | 2.0 | 5.0 | 0.00 | 0.16 | 0.00 | 50 | 1018.4 |
| 20260507134502 | 41 | 197 | 2.0 | 5.0 | 0.00 | 0.16 | 0.00 | 50 | 1018.3 |
| 20260507133059 | 40 | 218 | 0.0 | 5.0 | 0.00 | 0.16 | 0.00 | 50 | 1018.2 |
| 20260507131604 | 38 | 260 | 0.0 | 5.0 | 0.00 | 0.16 | 0.00 | 53 | 1018.2 |
| 20260507130056 | 35 | 218 | 0.0 | 3.0 | 0.00 | 0.16 | 0.00 | 57 | 1018.3 |
| 20260507124557 | 33 | 218 | 0.0 | 2.0 | 0.00 | 0.16 | 0.00 | 61 | 1018.2 |
| 20260507123053 | 30 | 61 | 0.0 | 2.0 | 0.00 | 0.16 | 0.00 | 71 | 1018.1 |
| 20260507121543 | 28 | 15 | 1.0 | 3.0 | 0.00 | 0.16 | 0.00 | 73 | 1017.9 |
| 20260507120040 | 30 | 254 | 0.0 | 1.0 | 0.00 | 0.16 | 0.00 | 65 | 1017.9 |
| 20260507114540 | 30 | 17 | 0.0 | 2.0 | 0.00 | 0.16 | 0.00 | 68 | 1018.1 |
| 20260507113035 | 28 | 223 | 0.0 | 3.0 | 0.00 | 0.16 | 0.00 | 72 | 1018.2 |
| 20260507111529 | 24 | 60 | 0.0 | 0.0 | 0.00 | 0.16 | 0.00 | 84 | 1018.2 |
| 20260507110029 | 24 | 32 | 0.0 | 3.0 | 0.00 | 0.16 | 0.00 | 85 | 1018.1 |
| 20260507104527 | 24 | 21 | 1.0 | 3.0 | 0.00 | 0.16 | 0.00 | 86 | 1018.1 |
| 20260507103025 | 24 | 30 | 1.0 | 5.0 | 0.00 | 0.16 | 0.00 | 87 | 1018.0 |
| 20260507101533 | 24 | 13 | 2.0 | 4.0 | 0.00 | 0.16 | 0.00 | 88 | 1018.2 |
| 20260507100031 | 24 | 39 | 0.0 | 3.0 | 0.00 | 0.16 | 0.00 | 88 | 1018.3 |
| 20260507094522 | 24 | 35 | 1.0 | 3.0 | 0.00 | 0.16 | 0.00 | 89 | 1018.1 |
| 20260507093033 | 24 | 39 | 1.0 | 3.0 | 0.00 | 0.16 | 0.00 | 89 | 1018.1 |
| 20260507091518 | 24 | 25 | 1.0 | 2.0 | 0.00 | 0.16 | 0.00 | 90 | 1018.2 |
| 20260507090028 | 24 | 21 | 0.0 | 3.0 | 0.00 | 0.16 | 0.00 | 90 | 1018.2 |
| 20260507084516 | 24 | 18 | 1.0 | 2.0 | 0.00 | 0.16 | 0.00 | 91 | 1018.2 |
| 20260507083031 | 24 | 29 | 2.0 | 3.0 | 0.00 | 0.16 | 0.00 | 91 | 1018.3 |
| 20260507081512 | 24 | 43 | 1.0 | 2.0 | 0.00 | 0.16 | 0.00 | 91 | 1018.3 |
| 20260507080009 | 24 | 44 | 1.0 | 2.0 | 0.00 | 0.16 | 0.00 | 91 | 1018.4 |
| 20260507074522 | 24 | 79 | 0.0 | 2.0 | 0.00 | 0.16 | 0.00 | 90 | 1018.5 |
| 20260507073007 | 24 | 38 | 1.0 | 2.0 | 0.00 | 0.16 | 0.00 | 90 | 1018.6 |
| 20260507071505 | 24 | 39 | 0.0 | 2.0 | 0.00 | 0.16 | 0.00 | 90 | 1018.5 |
| 20260507070007 | 24 | 65 | 1.0 | 2.0 | 0.00 | 0.16 | 0.00 | 89 | 1018.6 |
| 20260507064503 | 25 | 66 | 0.0 | 1.0 | 0.00 | 0.16 | 0.00 | 89 | 1018.6 |
| 20260507063101 | 25 | 90 | 0.0 | 1.0 | 0.00 | 0.16 | 0.00 | 89 | 1018.6 |
| 20260507061556 | 25 | 91 | 0.0 | 1.0 | 0.00 | 0.16 | 0.00 | 90 | 1018.5 |
| 20260507060052 | 26 | 91 | 0.0 | 1.0 | 0.00 | 0.16 | 0.00 | 90 | 1018.5 |
| 20260507054603 | 27 | 129 | 0.0 | 0.0 | 0.00 | 0.16 | 0.16 | 89 | 1018.3 |
| 20260507053055 | 27 | 129 | 0.0 | 1.0 | 0.00 | 0.16 | 0.16 | 89 | 1018.3 |
| 20260507051550 | 28 | 119 | 0.0 | 2.0 | 0.00 | 0.16 | 0.16 | 90 | 1018.1 |
| 20260507050049 | 28 | 132 | 0.0 | 3.0 | 0.00 | 0.16 | 0.16 | 89 | 1018.2 |
| 20260507044550 | 28 | 203 | 1.0 | 5.0 | 0.00 | 0.16 | 0.16 | 90 | 1018.1 |
| 20260507043048 | 28 | 201 | 2.0 | 4.0 | 0.00 | 0.16 | 0.16 | 89 | 1018.1 |
| 20260507041551 | 28 | 210 | 2.0 | 6.0 | 0.00 | 0.16 | 0.16 | 90 | 1018.2 |
| 20260507040057 | 28 | 149 | 1.0 | 4.0 | 0.00 | 0.16 | 0.16 | 90 | 1018.2 |
| 20260507034554 | 28 | 169 | 0.0 | 2.0 | 0.00 | 0.16 | 0.16 | 91 | 1018.1 |
| 20260507033046 | 28 | 195 | 0.0 | 2.0 | 0.00 | 0.16 | 0.16 | 90 | 1018.1 |
| 20260507031543 | 28 | 148 | 0.0 | 4.0 | 0.00 | 0.16 | 0.16 | 90 | 1018.0 |
| 20260507030041 | 29 | 190 | 0.0 | 7.0 | 0.00 | 0.16 | 0.16 | 90 | 1017.7 |
| 20260507024539 | 29 | 205 | 0.0 | 4.0 | 0.00 | 0.16 | 0.16 | 89 | 1017.7 |
| 20260507023039 | 29 | 151 | 1.0 | 3.0 | 0.00 | 0.16 | 0.16 | 87 | 1017.6 |
| 20260507021538 | 30 | 200 | 0.0 | 4.0 | 0.00 | 0.16 | 0.16 | 87 | 1017.6 |
| 20260507020038 | 30 | 153 | 1.0 | 4.0 | 0.00 | 0.16 | 0.16 | 84 | 1017.3 |
| 20260507014537 | 32 | 168 | 2.0 | 6.0 | 0.00 | 0.16 | 0.16 | 80 | 1017.3 |
| 20260507013039 | 33 | 166 | 3.0 | 7.0 | 0.00 | 0.16 | 0.16 | 79 | 1017.3 |
| 20260507011540 | 34 | 174 | 4.0 | 9.0 | 0.00 | 0.16 | 0.16 | 78 | 1017.3 |
| 20260507010034 | 33 | 129 | 2.0 | 7.0 | 0.00 | 0.16 | 0.16 | 79 | 1017.2 |
| 20260507004533 | 34 | 143 | 3.0 | 8.0 | 0.00 | 0.16 | 0.16 | 76 | 1017.0 |
| 20260507003033 | 36 | 158 | 3.0 | 10.0 | 0.01 | 0.16 | 0.16 | 75 | 1017.0 |
| 20260507001543 | 37 | 123 | 4.0 | 8.0 | 0.01 | 0.16 | 0.16 | 71 | 1016.9 |
| 20260507000032 | 36 | 206 | 4.0 | 11.0 | 0.02 | 0.16 | 0.16 | 71 | 1017.0 |
| 20260506234541 | 37 | 214 | 2.0 | 6.0 | 0.02 | 0.17 | 0.16 | 73 | 1016.9 |
| 20260506233027 | 36 | 283 | 2.0 | 6.0 | 0.02 | 0.16 | 0.15 | 71 | 1017.1 |
| 20260506231525 | 34 | 212 | 1.0 | 4.0 | 0.02 | 0.16 | 0.15 | 72 | 1017.0 |
| 20260506230022 | 34 | 250 | 0.0 | 4.0 | 0.02 | 0.17 | 0.14 | 74 | 1017.0 |
| 20260506224526 | 34 | 253 | 0.0 | 4.0 | 0.03 | 0.17 | 0.14 | 77 | 1016.9 |
| 20260506223018 | 33 | 306 | 0.0 | 4.0 | 0.04 | 0.16 | 0.13 | 76 | 1017.1 |
| 20260506221516 | 32 | 24 | 3.0 | 9.0 | 0.05 | 0.16 | 0.13 | 80 | 1017.2 |
| 20260506220015 | 32 | 33 | 3.0 | 9.0 | 0.04 | 0.16 | 0.12 | 79 | 1017.2 |
| 20260506214515 | 32 | 33 | 4.0 | 12.0 | 0.04 | 0.15 | 0.11 | 81 | 1017.1 |
| 20260506213020 | 32 | 359 | 4.0 | 9.0 | 0.03 | 0.13 | 0.09 | 79 | 1017.1 |
| 20260506211516 | 32 | 22 | 2.0 | 8.0 | 0.03 | 0.12 | 0.08 | 81 | 1017.4 |
| 20260506210012 | 33 | 335 | 4.0 | 11.0 | 0.03 | 0.13 | 0.08 | 83 | 1017.4 |
| 20260506204509 | 32 | 6 | 3.0 | 10.0 | 0.03 | 0.12 | 0.07 | 82 | 1017.5 |
| 20260506203008 | 32 | 360 | 3.0 | 7.0 | 0.03 | 0.11 | 0.06 | 82 | 1017.5 |
| 20260506201506 | 31 | 293 | 3.0 | 11.0 | 0.03 | 0.10 | 0.05 | 82 | 1017.4 |
| 20260506200010 | 31 | 11 | 4.0 | 11.0 | 0.04 | 0.11 | 0.05 | 83 | 1017.4 |
| 20260506194506 | 30 | 32 | 6.0 | 13.0 | 0.04 | 0.10 | 0.04 | 83 | 1017.3 |
| 20260506193004 | 31 | 25 | 4.0 | 10.0 | 0.03 | 0.09 | 0.03 | 81 | 1017.2 |
| 20260506191506 | 31 | 355 | 6.0 | 9.0 | 0.02 | 0.08 | 0.02 | 82 | 1017.4 |
| 20260506190002 | 32 | 327 | 6.0 | 10.0 | 0.01 | 0.10 | 0.01 | 82 | 1017.2 |
| 20260506184602 | 31 | 323 | 4.0 | 8.0 | 0.00 | 0.09 | 0.00 | 84 | 1017.2 |
| 20260506183110 | 30 | 15 | 3.0 | 8.0 | 0.00 | 0.09 | 0.00 | 84 | 1017.4 |
| 20260506181600 | 29 | 359 | 2.0 | 7.0 | 0.00 | 0.09 | 0.00 | 85 | 1017.3 |
| 20260506180056 | 29 | 309 | 3.0 | 8.0 | 0.00 | 0.09 | 0.00 | 86 | 1017.5 |
| 20260506174605 | 29 | 322 | 4.0 | 9.0 | 0.00 | 0.15 | 0.00 | 88 | 1017.2 |
| 20260506173055 | 29 | 325 | 3.0 | 7.0 | 0.00 | 0.15 | 0.00 | 89 | 1017.3 |
| 20260506171547 | 28 | 351 | 2.0 | 5.0 | 0.00 | 0.15 | 0.00 | 89 | 1016.7 |
| 20260506170046 | 28 | 335 | 2.0 | 5.0 | 0.00 | 0.15 | 0.00 | 90 | 1016.9 |